This is the latest recevied weather packets stored in our database for station/object F4ELU-13. If no packets are shown the sender has not sent any weather packets the latest 10 day(s).
| Time | Temp. | Humidity | Pressure | Rain* | Wind** | Luminosity | Snow |
|---|---|---|---|---|---|---|---|
| 1777733643 | 23.33° C | 40% | 1016.4 hPa | 0 mm | - | - | - |
| 1777733104 | 23.89° C | 40% | 1016.5 hPa | 0 mm | - | - | - |
| 1777732563 | 23.89° C | 39% | 1016.7 hPa | 0 mm | - | - | - |
| 1777732023 | 23.33° C | 39% | 1016.8 hPa | 0 mm | - | - | - |
| 1777731483 | 23.89° C | 41% | 1017 hPa | 0 mm | - | - | - |
| 1777730943 | 23.89° C | 41% | 1017 hPa | 0 mm | - | - | - |
| 1777730403 | 22.78° C | 44% | 1017.1 hPa | 0 mm | - | - | - |
| 1777730043 | 22.22° C | 43% | 1017.2 hPa | 0 mm | - | - | - |
| 1777729503 | 22.78° C | 41% | 1017.2 hPa | 0 mm | - | - | - |
| 1777728963 | 22.78° C | 40% | 1017.3 hPa | 0 mm | - | - | - |
| 1777728423 | 23.89° C | 39% | 1017.4 hPa | 0 mm | - | - | - |
| 1777727884 | 23.89° C | 38% | 1017.4 hPa | 0 mm | - | - | - |
| 1777727343 | 23.89° C | 39% | 1017.4 hPa | 0 mm | - | - | - |
| 1777726803 | 23.33° C | 39% | 1017.4 hPa | 0 mm | - | - | - |
| 1777726443 | 23.33° C | 40% | 1017.5 hPa | 0 mm | - | - | - |
| 1777725903 | 23.89° C | 39% | 1017.8 hPa | 0 mm | - | - | - |
| 1777725363 | 23.33° C | 39% | 1017.7 hPa | 0 mm | - | - | - |
| 1777724823 | 22.78° C | 37% | 1017.9 hPa | 0 mm | - | - | - |
| 1777724283 | 22.78° C | 40% | 1018 hPa | 0 mm | - | - | - |
| 1777723743 | 22.78° C | 37% | 1018 hPa | 0 mm | - | - | - |
| 1777723203 | 22.22° C | 40% | 1018.1 hPa | 0 mm | - | - | - |
| 1777722843 | 22.22° C | 41% | 1018.3 hPa | 0 mm | - | - | - |
| 1777722303 | 22.22° C | 39% | 1018.4 hPa | 0 mm | - | - | - |
| 1777721763 | 23.33° C | 38% | 1018.6 hPa | 0 mm | - | - | - |
| 1777721223 | 22.78° C | 40% | 1018.6 hPa | 0 mm | - | - | - |
* Rain latest hour (hover to see other rain measurements)
** Current wind speed in m/s (hover to see current wind gust speed)